Regional Weather Roundup
Issued by NWS

Home | Current Version | Previous Version | Text Only | Print | Product List | Glossary On
Versions: 1 2 3 4 5 6 7 8 9 10 11 12 13 14 15 16 17 18 19 20 21 22 23 24 25 26 27 28 29 30 31 32 33 34 35 36 37 38 39 40 41 42 43 44 45 46 47 48 49 50
000
ASUS44 KJAN 040710
RWRMS

MISSISSIPPI HOURLY WEATHER ROUNDUP
NATIONAL WEATHER SERVICE JACKSON MS
100 AM CST WED MAR 04 2015

NOTE: "FAIR: INDICATES FEW OR NO CLOUDS BELOW 12,000 FEET WITH NO
SIGNIFICANT WEATHER AND/OR OBSTRUCTIONS TO VISIBILITY.

MSZ001>002-007>008-010>013-018>021-025>028-034>036-040800-
NORTHWEST MISSISSIPPI

CITY           SKY/WX    TMP DP  RH WIND       PRES   REMARKS
CLARKSDALE     MOCLDY    63  63 100 S12       29.89S
CLEVELAND      PTSUNNY   62  62 100 SW9       29.91R
GREENWOOD      CLOUDY    67  65  93 S13       29.93S
GREENVILLE     PTCLDY    64  62  93 S14       29.90S
OLIVE BRANCH   MOCLDY    61 N/A N/A S9        29.87S
OXFORD         CLOUDY    64  64 100 S12G20    29.91F
TUNICA         PTSUNNY   61  59  94 S10       29.88S FOG
$$

MSZ003>006-009-014>017-022>024-029>033-037>039-040800-
NORTHEAST MISSISSIPPI

CITY           SKY/WX    TMP DP  RH WIND       PRES   REMARKS
COLUMBUS AFB   MOCLDY    65  65 100 S9        29.96S
CORINTH        CLOUDY    66  64  94 S13       29.88F
GOLDN TRIANGLE CLOUDY    64  63  94 S10       29.97S
STARKVILLE     CLOUDY    64  63  94 S7        29.97S
TUPELO         CLOUDY    65  63  93 SW9       29.93S
$$

MSZ040-058-040800-
CENTRAL MISSISSIPPI

CITY           SKY/WX    TMP DP  RH WIND       PRES   REMARKS
JACKSON INTL   CLOUDY    68  65  90 S13       29.97F
JACKSON HAWKNS CLOUDY    68  65  90 S7        29.97F
MERIDIAN KEY   CLOUDY    66  63  90 S9        30.00F
MERIDIAN NAS   CLOUDY    67  63  87 S7G16     30.00F
VICKSBURG      CLEAR     65  64  97 S6        29.95F
$$

MSZ059>079-040800-
SOUTH MISSISSIPPI

CITY           SKY/WX    TMP DP  RH WIND       PRES   REMARKS
BROOKHAVEN     CLOUDY    68  68 100 S7        30.00S
HATTIESBURG    CLOUDY    68  66  93 S7        30.01F
MCCOMB         CLOUDY    67  66  97 S6        29.99S
NATCHEZ        CLOUDY    68  66  94 S5        29.97S
PINE BELT      CLOUDY    66  63  88 S9        30.02S
$$

MSZ080>082-040800-
COASTAL MISSISSIPPI

CITY           SKY/WX    TMP DP  RH WIND       PRES   REMARKS
BILOXI         CLOUDY    66  66 100 S10       30.01F FOG
PASCAGOULA     CLOUDY    66  65  96 SE8       30.02F FOG
GULFPORT       CLOUDY    64  63  96 SE10      30.01F FOG
$$


USA.gov is the U.S. government's official web portal to all federal, state and local government web resources and services.